Regional Weather Roundup
Issued by NWS Nashville, TN

Home | Current Version | Previous Version | Text Only | Print | Product List | Glossary On
Versions: 1 2 3 4 5 6 7 8 9 10 11 12 13 14 15 16 17 18 19 20 21 22 23 24 25 26 27
000
ASUS44 KOHX 111410
RWROHX
MIDDLE TENNESSEE HOURLY WEATHER ROUNDUP
NATIONAL WEATHER SERVICE NASHVILLE TN
800 AM CST SUN DEC 11 2016

NOTE: "FAIR" INDICATES FEW OR NO CLOUDS BELOW 12,000 FEET WITH
NO SIGNIFICANT WEATHER AND/OR OBSTRUCTIONS TO VISIBILITY.

* THESE REPORTS ARE NOT UNDER NWS QUALITY CONTROL AND MAY NOT
  REPORT WEATHER SUCH AS PRECIPITATION AND FOG.


TNZ005>011-023>034-057-059-062>066-078-080-111500
...NORTHERN MIDDLE TENNESSEE...

CITY           SKY/WX    TMP DP  RH WIND       PRES   REMARKS
CLARKSVILLE    CLOUDY    40  15  36 S12       30.19F WCI  33
CROSSVILLE     CLOUDY    36  18  48 S9G16     30.28F WCI  29
GALLATIN       MOSUNNY   32  23  69 CALM      30.32S
LEBANON        CLOUDY    37  19  48 S8        30.27R WCI  31
NASHVILLE      CLOUDY    36  19  50 S6        30.29F WCI  31
PORTLAND       CLOUDY    36  18  48 S17G24    30.26S WCI  25
SMYRNA         CLOUDY    33  21  61 CALM      30.31S
SPRINGFIELD    CLOUDY    37  16  41 SE13      30.20F WCI  29
WEST NASHVILLE CLOUDY    36  16  44 SE9       30.27F WCI  29
$$
TNZ056-058-060-061-075>077-079-093>097-111500
...SOUTHERN MIDDLE TENNESSEE...

CITY           SKY/WX    TMP DP  RH WIND       PRES   REMARKS
COLUMBIA       SUNNY     37  21  52 S10       30.27R WCI  30
FAYETTEVILLE   SUNNY     37  19  48 S12       30.30F WCI  30
MCMINNVILLE    SUNNY     30  25  80 CALM        N/A
MURFREESBORO   CLOUDY    31  23  72 CALM      30.30R
SHELBYVILLE    SUNNY     37  27  65 S7        30.31S WCI  32
TULLAHOMA      SUNNY     34  18  51 S6        30.30F WCI  29
WINCHESTER     SUNNY     37  19  48 S16       30.31S WCI  28
$$


...KEY TO REMARKS...
VSB - VISIBILITY IN MILES
WCI - WIND CHILL INDEX
HX  - HEAT INDEX





USA.gov is the U.S. government's official web portal to all federal, state and local government web resources and services.